Hourly Data Report for June 10, 2021

WESTERN HEAD
NOVA SCOTIA
Current Station Operator: ECCC - MSC

43°59'24.070" N
64°39'51.008" W
10.10 m
8206240
71411
WWE

Download Data

Hourly Data (June 2021)
Hourly Data Report for June 10, 2021
TIME
LST
Temp Definition
°C
Dew Point Definition
°C
Rel Hum Definition
%
Precip. Amount Definition
mm

Wind Dir Definition
10's deg

Wind Spd Definition
km/h
Visibility Definition
km
Stn Press Definition
kPa
Hmdx Definition


Wind Chill Definition


Weather Definition


00:00 16.4 10.0 66 0.0 34 10   100.96     LegendNANA
01:00 15.8 10.1 69 0.0 35 8   100.96     LegendNANA
02:00 11.4 9.0 85 0.0 26 5   100.93     LegendNANA
03:00 12.7 9.6 81 0.0 27 12   100.91     LegendNANA
04:00 13.7 9.7 77 0.0 29 16   100.93     LegendNANA
05:00 13.3 9.4 77 0.0 28 11   100.95     LegendNANA
06:00 14.3 8.8 70 0.0 31 21   100.99     LegendNANA
07:00 15.7 7.3 57 0.0 32 22   101.05     LegendNANA
08:00 16.6 6.0 50 0.0 34 22   101.14     LegendNANA
09:00 17.9 5.3 43 0.0 34 18   101.18     LegendNANA
10:00 17.5 3.1 38 0.0 32 22   101.23     LegendNANA
11:00 18.6 0.4 29 0.0 33 22   101.27     LegendNANA
12:00 19.3 1.0 29 0.0 34 19   101.30     LegendNANA
13:00 19.6 -0.5 26 0.0 33 21   101.35     LegendNANA
14:00 19.9 -1.0 24 0.0 33 22   101.35     LegendNANA
15:00 19.4 0.8 29 0.0 36 15   101.38     LegendNANA
16:00 19.4 0.2 27 0.0 33 25   101.43     LegendNANA
17:00 18.4 1.0 31 0.0 35 16   101.49     LegendNANA
18:00 17.0 2.1 37 0.0 35 14   101.57     LegendNANA
19:00 12.3 4.2 58 0.0 1 10   101.69     LegendNANA
20:00 10.0 4.9 71 0.0 3 6   101.84     LegendNANA
21:00 8.9 4.6 74 0.0 1 4   101.97     LegendNANA
22:00 8.3 4.3 76 0.0 3 5   101.98     LegendNANA
23:00 7.4 5.5 88 0.0 6 11   101.93     LegendNANA

Notes on Data Quality.

Legend

  • E = Estimated
  • M = Missing
  • NA = Not Available*
  • [empty] = Indicates an unobserved value
Date modified: